Time,TemperatureF,DewpointF,PressureIn,WindDirection,WindDirectionDegrees,WindSpeedMPH,WindSpeedGustMPH,Humidity,HourlyPrecipIn,Conditions,Clouds,dailyrainin,SoftwareType,DateUTC
2014-09-16 00:04:00,64.8,53.6,29.72,NE,42,0.0,3.6,69,0.00,,---,0.00,cosweather0.1e,2014-09-16 07:04:00,
2014-09-16 00:09:00,64.8,53.6,29.72,NNE,27,0.0,4.9,69,0.00,,---,0.00,cosweather0.1e,2014-09-16 07:09:00,
2014-09-16 00:14:00,64.8,55.4,29.72,NE,52,0.0,3.6,70,0.00,,---,0.00,cosweather0.1e,2014-09-16 07:14:00,
2014-09-16 00:19:00,64.6,55.4,29.72,NE,36,0.0,3.1,70,0.00,,---,0.00,cosweather0.1e,2014-09-16 07:19:00,
2014-09-16 00:24:00,64.6,55.4,29.72,NNE,29,0.0,5.4,70,0.00,,---,0.00,cosweather0.1e,2014-09-16 07:24:00,
2014-09-16 00:29:00,64.4,55.4,29.72,NNE,20,0.0,4.0,70,0.00,,---,0.00,cosweather0.1e,2014-09-16 07:29:00,
2014-09-16 00:34:00,64.4,55.4,29.76,NE,36,0.0,6.3,71,0.00,,---,0.00,cosweather0.1e,2014-09-16 07:34:00,
2014-09-16 00:40:00,64.2,55.4,29.76,ENE,59,0.0,4.0,72,0.00,,---,0.00,cosweather0.1e,2014-09-16 07:40:00,
2014-09-16 00:45:00,64.2,55.4,29.76,NNE,33,0.0,5.4,72,0.00,,---,0.00,cosweather0.1e,2014-09-16 07:45:00,
2014-09-16 00:50:00,64.2,55.4,29.76,NE,50,0.0,4.9,72,0.00,,---,0.00,cosweather0.1e,2014-09-16 07:50:00,
2014-09-16 00:55:00,64.0,55.4,29.76,NE,38,0.0,3.6,73,0.00,,---,0.00,cosweather0.1e,2014-09-16 07:55:00,
2014-09-16 01:00:00,64.0,55.4,29.76,NE,44,0.0,3.1,73,0.00,,---,0.00,cosweather0.1e,2014-09-16 08:00:00,
2014-09-16 01:05:00,64.0,55.4,29.72,NE,51,0.0,3.6,73,0.00,,---,0.00,cosweather0.1e,2014-09-16 08:05:00,
2014-09-16 01:10:00,63.9,55.4,29.72,NNE,33,0.0,3.1,73,0.00,,---,0.00,cosweather0.1e,2014-09-16 08:10:00,
2014-09-16 01:15:00,63.9,55.4,29.72,NE,36,0.0,3.6,73,0.00,,---,0.00,cosweather0.1e,2014-09-16 08:15:00,
2014-09-16 01:20:00,63.9,55.4,29.76,NNE,25,0.0,2.7,73,0.00,,---,0.00,cosweather0.1e,2014-09-16 08:20:00,
2014-09-16 01:25:00,63.9,55.4,29.76,NE,34,0.0,4.0,73,0.00,,---,0.00,cosweather0.1e,2014-09-16 08:25:00,
2014-09-16 01:30:00,63.9,55.4,29.76,NE,47,0.0,4.0,73,0.00,,---,0.00,cosweather0.1e,2014-09-16 08:30:00,
2014-09-16 01:35:00,63.7,55.4,29.72,NE,39,0.0,3.6,74,0.00,,---,0.00,cosweather0.1e,2014-09-16 08:35:00,
2014-09-16 01:40:00,63.7,55.4,29.72,NE,38,0.0,3.6,74,0.00,,---,0.00,cosweather0.1e,2014-09-16 08:40:00,
2014-09-16 01:45:00,63.5,55.4,29.72,NNE,29,0.0,2.7,74,0.00,,---,0.00,cosweather0.1e,2014-09-16 08:45:00,
2014-09-16 01:50:00,63.7,57.2,29.72,NNE,32,0.0,3.6,75,0.00,,---,0.00,cosweather0.1e,2014-09-16 08:50:00,
2014-09-16 01:55:00,63.7,57.2,29.72,NNE,28,0.0,3.1,75,0.00,,---,0.00,cosweather0.1e,2014-09-16 08:55:00,
2014-09-16 02:00:00,63.7,57.2,29.72,NNE,29,0.0,3.6,75,0.00,,---,0.00,cosweather0.1e,2014-09-16 09:00:00,
2014-09-16 02:05:00,63.7,57.2,29.72,NNE,28,0.0,2.7,75,0.00,,---,0.00,cosweather0.1e,2014-09-16 09:05:00,
2014-09-16 02:10:00,63.5,57.2,29.72,NNE,23,0.0,4.0,76,0.00,,---,0.00,cosweather0.1e,2014-09-16 09:10:00,
2014-09-16 02:15:00,63.5,57.2,29.72,NNE,31,0.0,3.1,76,0.00,,---,0.00,cosweather0.1e,2014-09-16 09:15:00,
2014-09-16 02:20:00,63.5,57.2,29.72,NE,37,0.0,2.7,76,0.00,,---,0.00,cosweather0.1e,2014-09-16 09:20:00,
2014-09-16 02:25:00,63.5,57.2,29.72,NNE,21,0.0,3.1,76,0.00,,---,0.00,cosweather0.1e,2014-09-16 09:25:00,
2014-09-16 02:30:00,63.5,57.2,29.72,NNE,20,0.0,3.1,76,0.00,,---,0.00,cosweather0.1e,2014-09-16 09:30:00,
2014-09-16 02:35:00,63.5,57.2,29.72,NNE,26,0.0,2.7,76,0.00,,---,0.00,cosweather0.1e,2014-09-16 09:35:00,
2014-09-16 02:40:00,63.3,55.4,29.72,NE,35,0.0,5.4,77,0.00,,---,0.00,cosweather0.1e,2014-09-16 09:40:00,
2014-09-16 02:45:00,63.3,55.4,29.72,NNE,27,0.0,4.0,77,0.00,,---,0.00,cosweather0.1e,2014-09-16 09:45:00,
2014-09-16 02:50:00,63.1,55.4,29.72,NE,39,0.0,3.1,77,0.00,,---,0.00,cosweather0.1e,2014-09-16 09:50:00,
2014-09-16 02:55:00,63.1,55.4,29.72,NNE,25,0.0,3.1,78,0.00,,---,0.00,cosweather0.1e,2014-09-16 09:55:00,
2014-09-16 03:00:00,63.1,55.4,29.72,NNE,32,0.0,3.6,78,0.00,,---,0.00,cosweather0.1e,2014-09-16 10:00:00,
2014-09-16 03:05:00,63.1,55.4,29.72,NNE,30,0.0,2.7,78,0.00,,---,0.00,cosweather0.1e,2014-09-16 10:05:00,
2014-09-16 03:10:00,63.1,55.4,29.72,NNE,23,0.0,4.0,78,0.00,,---,0.00,cosweather0.1e,2014-09-16 10:10:00,
2014-09-16 03:15:00,63.0,55.4,29.72,NNE,16,0.0,2.7,78,0.00,,---,0.00,cosweather0.1e,2014-09-16 10:15:00,
2014-09-16 03:20:00,63.0,55.4,29.72,NE,41,0.0,4.9,78,0.00,,---,0.00,cosweather0.1e,2014-09-16 10:20:00,
2014-09-16 03:25:00,63.0,55.4,29.72,NNE,26,0.0,0.0,79,0.00,,---,0.00,cosweather0.1e,2014-09-16 10:25:00,
2014-09-16 03:30:00,63.1,55.4,29.72,NNE,26,0.0,0.0,79,0.00,,---,0.00,cosweather0.1e,2014-09-16 10:30:00,
2014-09-16 03:35:00,63.1,55.4,29.72,NNE,26,0.0,0.0,78,0.00,,---,0.00,cosweather0.1e,2014-09-16 10:35:00,
2014-09-16 03:40:00,63.3,55.4,29.72,NE,46,0.0,3.1,78,0.00,,---,0.00,cosweather0.1e,2014-09-16 10:40:00,
2014-09-16 03:45:00,63.1,55.4,29.72,NNE,24,0.0,3.1,78,0.00,,---,0.00,cosweather0.1e,2014-09-16 10:45:00,
2014-09-16 03:50:00,63.1,55.4,29.72,NE,47,0.0,3.6,78,0.00,,---,0.00,cosweather0.1e,2014-09-16 10:50:00,
2014-09-16 03:55:00,63.0,55.4,29.72,NE,38,0.0,3.1,79,0.00,,---,0.00,cosweather0.1e,2014-09-16 10:55:00,
2014-09-16 04:00:00,62.8,57.2,29.72,NE,54,0.0,3.6,81,0.00,,---,0.00,cosweather0.1e,2014-09-16 11:00:00,
2014-09-16 04:05:00,62.8,57.2,29.72,NE,46,0.0,3.6,82,0.00,,---,0.00,cosweather0.1e,2014-09-16 11:05:00,
2014-09-16 04:10:00,63.0,57.2,29.72,NE,47,0.0,3.6,83,0.00,,---,0.00,cosweather0.1e,2014-09-16 11:10:00,
2014-09-16 04:15:00,63.1,57.2,29.72,ENE,59,0.0,2.7,84,0.00,,---,0.00,cosweather0.1e,2014-09-16 11:15:00,
2014-09-16 04:20:00,63.1,57.2,29.72,NE,34,0.0,4.9,84,0.00,,---,0.00,cosweather0.1e,2014-09-16 11:20:00,
2014-09-16 04:25:00,63.3,57.2,29.72,NNE,26,0.0,4.0,84,0.00,,---,0.00,cosweather0.1e,2014-09-16 11:25:00,
2014-09-16 04:30:00,63.5,59.0,29.72,NE,43,0.0,0.0,84,0.00,,---,0.00,cosweather0.1e,2014-09-16 11:30:00,
2014-09-16 04:35:00,63.5,59.0,29.72,ENE,64,0.0,0.0,84,0.00,,---,0.00,cosweather0.1e,2014-09-16 11:35:00,
2014-09-16 04:40:00,63.7,59.0,29.72,NNE,27,0.0,0.0,83,0.00,,---,0.00,cosweather0.1e,2014-09-16 11:40:00,
2014-09-16 04:45:00,63.5,59.0,29.72,NNE,28,0.0,0.0,83,0.00,,---,0.00,cosweather0.1e,2014-09-16 11:45:00,
2014-09-16 04:50:00,63.3,57.2,29.72,NNE,28,0.0,0.0,82,0.00,,---,0.00,cosweather0.1e,2014-09-16 11:50:00,
2014-09-16 04:55:00,63.1,57.2,29.72,NNE,28,0.0,0.0,82,0.00,,---,0.00,cosweather0.1e,2014-09-16 11:55:00,
2014-09-16 05:00:00,63.1,57.2,29.72,NNE,27,0.0,0.0,82,0.00,,---,0.00,cosweather0.1e,2014-09-16 12:00:00,
2014-09-16 05:05:00,63.1,57.2,29.72,NNE,27,0.0,0.0,81,0.00,,---,0.00,cosweather0.1e,2014-09-16 12:05:00,
2014-09-16 05:10:00,63.3,57.2,29.72,NNE,28,0.0,0.0,81,0.00,,---,0.00,cosweather0.1e,2014-09-16 12:10:00,
2014-09-16 05:15:00,63.5,59.0,29.72,NNE,27,0.0,0.0,81,0.00,,---,0.00,cosweather0.1e,2014-09-16 12:15:00,
2014-09-16 05:20:00,63.5,59.0,29.72,NNE,27,0.0,0.0,81,0.00,,---,0.00,cosweather0.1e,2014-09-16 12:20:00,
2014-09-16 05:25:00,63.5,59.0,29.72,NNE,28,0.0,0.0,81,0.00,,---,0.00,cosweather0.1e,2014-09-16 12:25:00,
2014-09-16 05:30:00,63.7,59.0,29.72,NNE,28,0.0,0.0,81,0.00,,---,0.00,cosweather0.1e,2014-09-16 12:30:00,
2014-09-16 05:35:00,63.7,59.0,29.72,NNE,28,0.0,0.0,81,0.00,,---,0.00,cosweather0.1e,2014-09-16 12:35:00,
2014-09-16 05:41:00,63.5,57.2,29.72,NNE,28,0.0,0.0,80,0.00,,---,0.00,cosweather0.1e,2014-09-16 12:41:00,
2014-09-16 05:46:00,63.5,57.2,29.72,NNE,27,0.0,0.0,80,0.00,,---,0.00,cosweather0.1e,2014-09-16 12:46:00,
2014-09-16 05:51:00,63.5,57.2,29.72,NNE,28,0.0,0.0,80,0.00,,---,0.00,cosweather0.1e,2014-09-16 12:51:00,
2014-09-16 05:56:00,63.5,57.2,29.72,NNE,28,0.0,0.0,80,0.00,,---,0.00,cosweather0.1e,2014-09-16 12:56:00,
2014-09-16 06:01:00,63.3,57.2,29.72,NNE,28,0.0,0.0,80,0.00,,---,0.00,cosweather0.1e,2014-09-16 13:01:00,
2014-09-16 06:06:00,63.3,57.2,29.72,NNE,28,0.0,0.0,80,0.00,,---,0.00,cosweather0.1e,2014-09-16 13:06:00,
2014-09-16 06:11:00,63.3,57.2,29.72,NNE,27,0.0,0.0,80,0.00,,---,0.00,cosweather0.1e,2014-09-16 13:11:00,
2014-09-16 06:16:00,63.1,55.4,29.72,NNE,27,0.0,0.0,79,0.00,,---,0.00,cosweather0.1e,2014-09-16 13:16:00,
2014-09-16 06:21:00,63.1,55.4,29.72,NNE,28,0.0,0.0,79,0.00,,---,0.00,cosweather0.1e,2014-09-16 13:21:00,
2014-09-16 06:26:00,63.1,55.4,29.72,NNE,28,0.0,0.0,79,0.00,,---,0.00,cosweather0.1e,2014-09-16 13:26:00,
2014-09-16 06:31:00,63.1,55.4,29.72,NNE,14,0.0,0.0,79,0.00,,---,0.00,cosweather0.1e,2014-09-16 13:31:00,
2014-09-16 06:36:00,63.1,55.4,29.72,NNE,13,0.0,0.0,79,0.00,,---,0.00,cosweather0.1e,2014-09-16 13:36:00,
2014-09-16 06:41:00,63.1,55.4,29.72,NNE,14,0.0,0.0,79,0.00,,---,0.00,cosweather0.1e,2014-09-16 13:41:00,
2014-09-16 06:46:00,63.1,55.4,29.72,NNE,15,0.0,0.0,79,0.00,,---,0.00,cosweather0.1e,2014-09-16 13:46:00,
2014-09-16 06:51:00,63.0,55.4,29.72,NE,48,0.0,0.0,79,0.00,,---,0.00,cosweather0.1e,2014-09-16 13:51:00,
2014-09-16 06:56:00,63.0,55.4,29.72,NE,47,0.0,0.0,79,0.00,,---,0.00,cosweather0.1e,2014-09-16 13:56:00,
2014-09-16 07:01:00,63.0,55.4,29.72,NNE,33,0.0,0.0,79,0.00,,---,0.00,cosweather0.1e,2014-09-16 14:01:00,
2014-09-16 07:06:00,63.1,57.2,29.72,NNE,33,0.0,0.0,80,0.00,,---,0.00,cosweather0.1e,2014-09-16 14:06:00,
2014-09-16 07:11:00,63.1,57.2,29.72,NNE,33,0.0,0.0,80,0.00,,---,0.00,cosweather0.1e,2014-09-16 14:11:00,